{"data":{"norad_id":42814,"intl_designator":"2017-040A","name":"HELLAS-SAT 3","alt_names":[],"object_type":"PAYLOAD","status":"ACTIVE","operator":null,"country":"GREC","launch_date":"2017-06-28","launch_site_code":"FRGUI","launch_vehicle":null,"mission":null,"orbit_class":"UNKNOWN","rcs_meters":null,"size_class":null,"mass_kg":null,"dimensions":null,"purposes":["comms"],"wikipedia_slug":null,"has_3d_model":false,"image_url":null,"decayed_at":null,"tle_current":{"epoch":"2026-05-25T03:55:46.193376Z","epoch_age_seconds":64853,"freshness":"FRESH","line1":"1 42814U 17040A   26145.16372909  .00000150  00000+0  00000+0 0  9990","line2":"2 42814   0.0863  71.8999 0005434 331.2322 297.5673  1.00274076 32576","mean_motion":1.00274076,"eccentricity":0.0005434,"inclination_deg":0.0863,"raan_deg":71.8999,"arg_perigee_deg":331.2322,"mean_anomaly_deg":297.5673,"bstar":0,"rev_number":3257,"period_min":1436.0640929765,"perigee_km":35763.040756598,"apogee_km":35808.864689309,"semimajor_km":42164.089722953,"source":"CELESTRAK","updated_at":"2026-05-25T13:38:14.046161Z"}}}